Weather History for KTTF - December, 2011

Change the Weather History Date:

Friday, December 30, 2011

  Actual Average Record
Temperature  
Mean Temperature 39 °F -  
Max Temperature 46 °F 33 °F 64 °F (1984)
Min Temperature 32 °F 19 °F -8 °F (1983)
Degree Days  
Heating Degree Days 26    
Moisture  
Dew Point 41 °F    
Average Humidity 99    
Maximum Humidity 100    
Minimum Humidity 81    
Precipitation  
Precipitation 0.00 in - - ()
Sea Level Pressure  
Sea Level Pressure 29.65 in    
Wind  
Wind Speed 6 mph (South)    
Max Wind Speed 15 mph    
Max Gust Speed 20 mph    
Visibility 7 miles    
Events Rain    
Averages and records for this station are not official NWS values.
T = Trace of Precipitation, MM = Missing Value Source: NWS Daily Summary

Daily Weather History Graph

Daily Weather History Graph

Search for Another Location

Airport or City:

Trip Planner

Search our weather history database for the weather conditions in past years. The results will help you decide how hot, cold, wet, or windy it might be!

Date:

Astronomy

Dec. 30, 2011 Rise Set
Actual Time 8:01 AM EST 5:11 PM EST
Civil Twilight 7:29 AM EST 5:42 PM EST
Nautical Twilight 6:54 AM EST 6:17 PM EST
Astronomical Twilight 6:20 AM EST 6:51 PM EST
Moon 11:14 AM EST (12/30) 11:52 PM EST (12/30)
Length of Visible Light 10h 13m
Length of Day
9h 09m
Waxing Crescent, 35% of the Moon is Illuminated
Dec 30
Waxing Crescent
Jan 1
First Quarter
Jan 9
Full
Jan 16
Last Quarter
Jan 23
New

Hourly Weather History & Observations

Time (EST) Temp. Windchill Dew Point Humidity Pressure Visibility Wind Dir Wind Speed Gust Speed Precip Events Conditions
12:15 AM 42.8 °F 38.6 °F 39.2 °F 87% 29.70 in 10.0 mi WSW 6.9 mph - N/A   Overcast
12:55 AM 42.8 °F 39.3 °F 37.4 °F 81% 29.70 in - WSW 5.8 mph - N/A   Overcast
1:10 AM 39.2 °F 33.6 °F 37.4 °F 93% 29.71 in 10.0 mi SW 8.1 mph - N/A   Mostly Cloudy
1:30 AM 39.2 °F 35.0 °F 37.4 °F 93% 29.71 in 10.0 mi SW 5.8 mph - N/A   Scattered Clouds
1:50 AM 37.4 °F 31.4 °F 37.4 °F 100% 29.71 in 10.0 mi SW 8.1 mph - N/A   Clear
2:11 AM 37.4 °F 34.9 °F 37.4 °F 100% 29.71 in 10.0 mi SW 3.5 mph - N/A   Clear
2:31 AM 37.4 °F 32.8 °F 37.4 °F 100% 29.72 in 10.0 mi SW 5.8 mph - N/A   Clear
2:51 AM 37.4 °F 32.1 °F 37.4 °F 100% 29.74 in 10.0 mi SW 6.9 mph - N/A   Clear
3:11 AM 37.4 °F 32.8 °F 37.4 °F 100% 29.74 in 10.0 mi SW 5.8 mph - N/A   Clear
3:51 AM 35.6 °F 30.7 °F 35.6 °F 100% 29.75 in 10.0 mi SW 5.8 mph - N/A   Clear
4:11 AM 35.6 °F 32.8 °F 35.6 °F 100% 29.75 in 10.0 mi SW 3.5 mph - N/A   Clear
4:51 AM 35.6 °F 32.8 °F 35.6 °F 100% 29.76 in 7.0 mi WSW 3.5 mph - N/A   Scattered Clouds
5:11 AM 35.6 °F 31.7 °F 35.6 °F 100% 29.76 in 7.0 mi SW 4.6 mph - N/A   Scattered Clouds
5:31 AM 35.6 °F - 35.6 °F 100% 29.77 in 7.0 mi Calm Calm - N/A   Clear
5:51 AM 35.6 °F - 35.6 °F 100% 29.77 in 7.0 mi Calm Calm - N/A   Clear
6:12 AM 35.6 °F - 35.6 °F 100% 29.77 in - Calm Calm - N/A   Unknown
6:32 AM 35.6 °F - 35.6 °F 100% 29.76 in - Calm Calm - N/A   Unknown
6:52 AM 33.8 °F - 33.8 °F 100% 29.77 in - Calm Calm - N/A   Unknown
7:12 AM 32.0 °F - 32.0 °F 100% 29.77 in - Calm Calm - N/A   Unknown
7:32 AM - - - N/A% 29.77 in - Calm Calm - N/A   Unknown
7:52 AM 32.0 °F - 32.0 °F 100% 29.76 in - Calm Calm - N/A   Mostly Cloudy
8:33 AM 33.8 °F - 33.8 °F 100% 29.76 in 2.5 mi Calm Calm - N/A   Mostly Cloudy
8:53 AM 35.6 °F - 35.6 °F 100% 29.76 in 3.0 mi Calm Calm - N/A   Mostly Cloudy
9:13 AM 35.6 °F - 35.6 °F 100% 29.76 in 3.0 mi Calm Calm - N/A   Mostly Cloudy
9:33 AM 37.4 °F 32.8 °F 37.4 °F 100% 29.76 in 5.0 mi SE 5.8 mph - N/A   Overcast
10:13 AM 37.4 °F 33.8 °F 37.4 °F 100% 29.75 in 7.0 mi SE 4.6 mph - N/A   Drizzle
10:33 AM 39.2 °F 35.9 °F 39.2 °F 100% 29.75 in 7.0 mi SSE 4.6 mph - N/A   Drizzle
10:53 AM 39.2 °F 35.9 °F 39.2 °F 100% 29.74 in 4.0 mi SE 4.6 mph - N/A Rain Light Rain
11:13 AM 39.2 °F 37.0 °F 39.2 °F 100% 29.73 in 5.0 mi SSE 3.5 mph - N/A Rain Light Rain
11:34 AM 39.2 °F 34.2 °F 39.2 °F 100% 29.68 in 4.0 mi NE 6.9 mph - N/A Rain Light Rain
12:14 PM 41.0 °F 36.4 °F 41.0 °F 100% 29.70 in 7.0 mi South 6.9 mph - N/A   Overcast
12:34 PM 39.2 °F 35.0 °F 39.2 °F 100% 29.66 in 7.0 mi ESE 5.8 mph - N/A   Overcast
12:54 PM 41.0 °F 38.0 °F 41.0 °F 100% 29.64 in 7.0 mi ESE 4.6 mph - N/A   Overcast
1:34 PM 42.8 °F 38.0 °F 42.8 °F 100% 29.60 in 7.0 mi ESE 8.1 mph - N/A   Overcast
2:15 PM 42.8 °F 38.6 °F 42.8 °F 100% 29.58 in 7.0 mi East 6.9 mph - N/A   Overcast
2:35 PM 42.8 °F 39.3 °F 42.8 °F 100% 29.58 in 7.0 mi ESE 5.8 mph - N/A   Overcast
2:55 PM 42.8 °F 37.5 °F 42.8 °F 100% 29.55 in 7.0 mi East 9.2 mph - N/A   Overcast
3:10 PM 42.8 °F 38.6 °F 42.8 °F 100% 29.55 in 7.0 mi East 6.9 mph - N/A   Overcast
3:30 PM 42.8 °F 38.6 °F 42.8 °F 100% 29.54 in 5.0 mi ESE 6.9 mph - N/A Rain Rain
3:50 PM 42.8 °F 37.5 °F 42.8 °F 100% 29.55 in 3.0 mi ESE 9.2 mph - N/A Rain Heavy Rain
4:11 PM 42.8 °F 40.1 °F 42.8 °F 100% 29.54 in 2.5 mi East 4.6 mph - N/A Rain Rain
4:31 PM 42.8 °F 38.0 °F 42.8 °F 100% 29.54 in 4.0 mi ESE 8.1 mph - N/A Rain Light Rain
4:51 PM 44.6 °F 38.4 °F 44.6 °F 100% 29.54 in 5.0 mi SSE 12.7 mph 16.1 mph N/A Rain Heavy Rain
5:11 PM 44.6 °F 40.7 °F 44.6 °F 100% 29.54 in 7.0 mi SE 6.9 mph - N/A   Overcast
5:31 PM 44.6 °F 39.2 °F 44.6 °F 100% 29.53 in 7.0 mi SE 10.4 mph - N/A   Overcast
5:51 PM 44.6 °F 43.1 °F 44.6 °F 100% 29.53 in 7.0 mi SSE 3.5 mph - N/A Rain Rain
6:11 PM 44.6 °F 43.1 °F 44.6 °F 100% 29.53 in 7.0 mi SE 3.5 mph - N/A   Overcast
6:31 PM 44.6 °F 40.2 °F 44.6 °F 100% 29.53 in 7.0 mi SSE 8.1 mph - N/A Rain Light Rain
6:51 PM 44.6 °F 41.4 °F 44.6 °F 100% 29.54 in 4.0 mi SSW 5.8 mph - N/A Rain Heavy Rain
7:11 PM 46.4 °F 41.9 °F 46.4 °F 100% 29.54 in 10.0 mi SSW 9.2 mph - N/A Rain Rain
7:31 PM 46.4 °F 42.4 °F 46.4 °F 100% 29.55 in 10.0 mi SSW 8.1 mph - N/A Rain Rain
7:51 PM 46.4 °F 41.9 °F 46.4 °F 100% 29.55 in 10.0 mi SSW 9.2 mph - N/A   Overcast
8:11 PM 46.4 °F 41.1 °F 46.4 °F 100% 29.56 in 10.0 mi SW 11.5 mph 16.1 mph N/A   Overcast
8:32 PM 46.4 °F 41.5 °F 46.4 °F 100% 29.56 in 10.0 mi SW 10.4 mph - N/A   Overcast
8:52 PM 46.4 °F 40.4 °F 46.4 °F 100% 29.56 in 10.0 mi SW 13.8 mph - N/A   Overcast
9:12 PM 46.4 °F 40.7 °F 46.4 °F 100% 29.57 in 10.0 mi SW 12.7 mph - N/A   Overcast
9:32 PM 46.4 °F 40.7 °F 46.4 °F 100% 29.58 in 10.0 mi SW 12.7 mph 19.6 mph N/A Rain Light Rain
9:52 PM 46.4 °F 40.4 °F 46.4 °F 100% 29.58 in 10.0 mi SW 13.8 mph 18.4 mph N/A Rain Light Rain
10:12 PM 44.6 °F 38.4 °F 44.6 °F 100% 29.59 in 5.0 mi SW 12.7 mph 16.1 mph N/A   Drizzle
10:32 PM 44.6 °F 38.8 °F 44.6 °F 100% 29.59 in 10.0 mi SW 11.5 mph 17.3 mph N/A   Light Drizzle
10:53 PM 44.6 °F 38.4 °F 44.6 °F 100% 29.59 in 10.0 mi SW 12.7 mph - N/A   Drizzle
11:13 PM 44.6 °F 38.8 °F 44.6 °F 100% 29.60 in 7.0 mi SW 11.5 mph - N/A   Drizzle
11:53 PM 44.6 °F 37.8 °F 44.6 °F 100% 29.60 in 10.0 mi SW 15.0 mph - N/A   Drizzle